User: anonymous   Login
Location: Arrecife
(10.5858°N, 67.0742°W)
Time: 23:04:59
(UTC+00:00)
Language:

CZ-4 R/B - Orbit

View from above orbital plane
View from above orbital plane
View from above satellite
View from above satellite

Ground track
Ground track

The orbit data is extracted from the following two-line orbital elements,

1 28414U 04035B   22139.51882828  .00000733  00000-0  72970-4 0  9992
2 28414  97.7153 160.4312 0007150 136.7991 223.3803 14.94611389963633
Epoch (UTC): 19 May 2022 12:27:06
Eccentricity: 0.0007150
inclination: 97.7153°
perigee height: 578 km
apogee height: 588 km
right ascension of ascending node: 160.4312°
argument of perigee: 136.7991°
revolutions per day: 14.94611389
mean anomaly at epoch: 223.3803°
orbit number at epoch: 96363

The dashed part of the orbit path shows where the satellite is in the earth's shadow,  

DLR